Skip Page Navigation
NASA JPL Caltech
NASA Logo - Jet Propulsion Laboratory + View the NASA Portal
+ Near-Earth Object (NEO) Program
Search JPL
JPL Home Earth Solar System Stars & Galaxies Technology
JPL Solar System Dynamics
BODIES ORBITS EPHEMERIDES TOOLS PHYSICAL DATA DISCOVERY FAQ SITE MAP
JPL Small-Body Database Browser
Search: [ help ]  
52533 (1996 TJ10)
Classification: Inner Main-belt Asteroid          SPK-ID: 2052533
Ephemeris | Orbit Diagram | Orbital Elements | Physical Parameters | Discovery Circumstances | Close-Approach Data ]

[ show orbit diagram ]
Orbital Elements at Epoch 2456800.5 (2014-May-23.0) TDB
Reference: JPL 11 (heliocentric ecliptic J2000)
 Element Value Uncertainty (1-sigma)   Units 
e .08047600118819377 8.9883e-08  
a 1.957237582754465 1.6668e-08 AU
q 1.79972692871914 1.7287e-07 AU
i 19.01435546275563 9.2817e-06 deg
node 12.23715335282917 2.3846e-05 deg
peri 307.9716844413374 6.6615e-05 deg
M 209.1376171342864 7.1435e-05 deg
tp 2457219.623689880008
(2015-Jul-16.12368988)
0.000201 JED
period 1000.146792664074
2.74
1.2776e-05
3.498e-08
d
yr
n .359947162397106 4.5981e-09 deg/d
Q 2.114748236789791 1.801e-08 AU
  Orbit Determination Parameters
   # obs. used (total)      623  
   data-arc span      6466 days (17.70 yr)  
   first obs. used      1996-09-18  
   last obs. used      2014-06-02  
   planetary ephem.      DE431  
   SB-pert. ephem.      SB431-BIG16  
   condition code      0  
   fit RMS      .51703  
   data source      ORB  
   producer      Otto Matic  
   solution date      2014-Jun-16 15:05:43  

Additional Information
 Earth MOID = .827906 AU 
 T_jup = 3.814 
[ show covariance matrix ]

Ephemeris | Orbit Diagram | Orbital Elements | Physical Parameters | Discovery Circumstances | Close-Approach Data ]

Physical Parameter Table
Parameter Symbol Value Units Sigma Reference Notes
absolute magnitude H 14.5 mag n/a MPO240603  

52533 (1996 TJ10)          Discovered 1996-Oct-09 by Ueda, S., Kaneda, H. at Kushiro (399)
Reference: 20030216/Numbers.arcLast Updated: 2004-04-19

[ show close-approach data ]
Alternate Designations
 1996 TJ10 = 1998 FA144 
Ephemeris | Orbit Diagram | Orbital Elements | Physical Parameters | Discovery Circumstances | Close-Approach Data ]
ABOUT SSD CREDITS/AWARDS PRIVACY/COPYRIGHT GLOSSARY LINKS
FirstGov 2014-Jul-22 21:33 UT
(server date/time)  
NASA Home Page
Site Manager:   Donald K. Yeomans
Webmaster  Alan B. Chamberlin